Location: Unspecified
(0.0000°N, 0.0000°E)
Time: 00:47:13
(UTC+00:00)

Explorer 11/Cluster Stage 4 - All Passes

Search period start: 20 July 2019 00:00
Search period end: 30 July 2019 00:00
Orbit: 467 x 1260 km, 28.8° (Epoch: 18 July)

Date Brightness Start Highest point End Pass type
(mag) Time Alt. Az. Time Alt. Az. Time Alt. Az.
20 Jul - 00:49:51 10° NW 00:52:10 12° NNW 00:54:37 10° N night (unlit)
20 Jul - 06:22:25 10° N 06:26:30 14° NNE 06:30:28 10° NE daylight
20 Jul - 08:09:32 10° NW 08:16:46 38° NNE 08:22:59 10° E daylight
20 Jul - 09:58:50 10° WNW 10:06:02 64° SSW 10:11:50 10° SE daylight
20 Jul - 11:51:29 10° WSW 11:54:41 15° SSW 11:57:34 10° S daylight
20 Jul - 20:58:48 10° SW 21:03:00 63° SSE 21:08:12 10° ENE night (unlit)
20 Jul - 22:47:31 10° W 22:51:47 27° NNW 22:56:53 10° NNE night (unlit)
21 Jul - 06:11:01 10° NNW 06:15:58 17° NNE 06:20:44 10° ENE daylight
21 Jul - 07:58:28 10° NW 08:06:06 46° NNE 08:12:43 10° E daylight
21 Jul - 09:48:05 10° WNW 09:55:20 54° SSW 10:01:17 10° SE daylight
21 Jul - 11:41:30 10° WSW 11:44:07 13° SSW 11:46:32 10° S daylight
21 Jul - 19:03:04 10° SSE 19:04:20 11° SSE 19:05:38 10° SE visible
21 Jul - 20:48:23 10° WSW 20:52:28 82° SSE 20:57:31 10° ENE night (unlit)
21 Jul - 22:37:37 10° WNW 22:41:19 21° NNW 22:45:40 10° NNE night (unlit)
22 Jul - 05:59:46 10° NNW 06:05:22 20° NNE 06:10:49 10° ENE daylight
22 Jul - 07:47:27 10° NW 07:55:24 55° NNE 08:02:20 10° ESE daylight
22 Jul - 09:37:23 10° WNW 09:44:37 46° SSW 09:50:39 10° SE daylight
22 Jul - 11:31:48 10° SW 11:33:34 11° SSW 11:35:15 10° SSW daylight
22 Jul - 18:51:48 10° S 18:53:51 14° SSE 18:56:00 10° ESE visible
22 Jul - 20:38:01 10° WSW 20:41:59 76° NNW 20:46:47 10° NE visible
22 Jul - 22:27:53 10° WNW 22:30:55 16° NNW 22:34:19 10° NNE night (unlit)
23 Jul - 05:48:35 10° NNW 05:54:45 23° NNE 06:00:46 10° ENE daylight
23 Jul - 07:36:30 10° NW 07:44:39 64° NNE 07:51:53 10° ESE daylight
23 Jul - 09:26:44 10° W 09:33:53 40° SSW 09:39:59 10° SE daylight
23 Jul - 18:40:50 10° SSW 18:43:23 18° SSE 18:46:04 10° ESE visible
23 Jul - 20:27:43 10° WSW 20:31:31 55° NNW 20:36:01 10° NE visible
23 Jul - 22:18:31 10° NW 22:20:31 12° NNW 22:22:39 10° N night (unlit)
24 Jul - 05:37:29 10° NNW 05:44:04 26° NNE 05:50:35 10° E visible
24 Jul - 07:25:35 10° NW 07:33:52 75° NNE 07:41:22 10° ESE daylight
24 Jul - 09:16:09 10° W 09:23:10 35° SSW 09:29:15 10° SSE daylight
24 Jul - 18:30:00 10° SSW 18:32:55 23° SSE 18:35:58 10° E visible
24 Jul - 20:17:29 10° W 20:21:05 40° NNW 20:25:12 10° NE visible
25 Jul - 03:42:04 10° NNE 03:43:03 10° NNE 03:44:02 10° NNE visible
25 Jul - 05:26:28 10° NNW 05:33:22 30° NNE 05:40:18 10° E visible
25 Jul - 07:14:44 10° WNW 07:23:04 87° NNE 07:30:46 10° ESE daylight
25 Jul - 09:05:39 10° W 09:12:26 30° SSW 09:18:28 10° SSE daylight
25 Jul - 18:19:15 10° SSW 18:22:28 30° SSE 18:25:46 10° E daylight
25 Jul - 20:07:21 10° W 20:10:38 29° NNW 20:14:19 10° NE visible
26 Jul - 03:30:05 10° N 03:32:32 12° NNE 03:35:03 10° NE visible
26 Jul - 05:15:29 10° NW 05:22:38 35° NNE 05:29:56 10° E visible
26 Jul - 07:03:57 10° WNW 07:12:16 82° SSW 07:20:06 10° SE daylight
26 Jul - 08:55:12 10° W 09:01:43 27° SSW 09:07:38 10° SSE daylight
26 Jul - 18:08:33 10° SW 18:12:01 40° SSE 18:15:29 10° ENE daylight
26 Jul - 19:57:19 10° W 20:00:13 22° NNW 20:03:23 10° NNE visible
27 Jul - 03:18:44 10° N 03:21:59 13° NNE 03:25:23 10° NE visible
27 Jul - 05:04:34 10° NW 05:11:52 40° NNE 05:19:29 10° E visible
27 Jul - 06:53:13 10° WNW 07:01:27 71° SSW 07:09:22 10° SE daylight
27 Jul - 08:44:51 10° WSW 08:51:01 23° SSW 08:56:43 10° SSE daylight
27 Jul - 17:57:55 10° SW 18:01:35 57° SSE 18:05:08 10° ENE daylight
27 Jul - 19:47:26 10° WNW 19:49:49 16° NNW 19:52:18 10° NNE visible
28 Jul - 03:07:33 10° N 03:11:24 15° NNE 03:15:29 10° ENE visible
28 Jul - 04:53:44 10° NW 05:01:05 47° NNE 05:08:57 10° ESE visible
28 Jul - 06:42:34 10° WNW 06:50:38 61° SSW 06:58:35 10° SE daylight
28 Jul - 08:34:36 10° WSW 08:40:21 21° SSW 08:45:46 10° SSE daylight
28 Jul - 16:00:59 10° S 16:02:38 12° SSE 16:04:12 10° SE daylight
28 Jul - 17:47:21 10° WSW 17:51:08 81° SSE 17:54:44 10° ENE daylight
28 Jul - 19:37:51 10° NW 19:39:24 12° NNW 19:40:58 10° N visible
29 Jul - 02:56:30 10° N 03:00:47 17° NNE 03:05:26 10° ENE visible
29 Jul - 04:42:56 10° NW 04:50:17 54° NNE 04:58:19 10° ESE visible
29 Jul - 06:31:59 10° WNW 06:39:49 53° SSW 06:47:44 10° SE daylight
29 Jul - 08:24:27 10° WSW 08:29:42 18° SSW 08:34:43 10° SSE daylight
29 Jul - 15:49:29 10° SSW 15:52:14 16° SSE 15:54:46 10° ESE daylight
29 Jul - 17:36:49 10° WSW 17:40:41 72° NNW 17:44:16 10° NE daylight
